Roseburg, OR

6:25 AM PDT on March 28, 2017 (GMT -0700)
West Umpqua Street | | Change Station

Elev 0 ft 43.22 °N, 123.36 °W | Updated 8 minutes ago

Overcast
Overcast
42.3 °F
Feels Like 42 °F
N
0.6
Wind Variable Wind from NNE
Gusts 1.9 mph

Today
High -- | Low -- °F
--% Chance of Precip.
Yesterday
High -- | Low -- °F
Precip. -- in
Pressure 30.39 in
Visibility 10.0 miles
Clouds Overcast 4800 ft
Windchill 42 °F
Dew Point 40 °F
Humidity 90%
Rainfall 0.00 in
Snow Depth Not available.
7:01 AM 7:35 PM
New Moon, 0% visible
METAR KRBG 281253Z AUTO 00000KT 10SM OVC048 07/06 A3038 RMK AO2 RAE03 SLP291 P0000 T00670056
Pressure 30.39 in
Visibility 10.0 miles
Clouds Overcast 4800 ft
Windchill 42 °F
Dew Point 40 °F
Humidity 90%
Rainfall 0.00 in
Snow Depth Not available.
7:01 AM 7:35 PM
New Moon, 0% visible
METAR KRBG 281253Z AUTO 00000KT 10SM OVC048 07/06 A3038 RMK AO2 RAE03 SLP291 P0000 T00670056

Get Severe Weather Alerts

Thanks for signing up!

Be on the lookout for a verification email in your inbox.

You'll start receiving the daily forecast at 8 AM.

×

10-Day Weather Forecast

Almanac

Astronomy

Mar. 28, 2017 Rise Set
Actual Time
Civil Twilight
Nautical Twilight
Astronomical Twilight
Moon
Length of Visible Light
Length of Day
Tomorrow will be .
, % of the Moon is Illuminated

Today's Extremes

State Highs State Lows

Community

WunderPhotos

Upload Photos

1,962,540 photos uploaded!

WunderBlog® & News

Nearby

Air Quality

  Air Quality AQ Index Pollutant
Not available.

Snow Depth

Station Depth Elevation

Earthquake Activity

City Distance Mag. Time & Date
Minimum magnitude displayed is 2.5.

Earthquake Activity

City Distance Mag. Time & Date
Minimum magnitude displayed is 2.5.

Coastal Water Temperatures

Place Temperature

Stations

Nearby Weather Stations

Station Location Temp. Windchill Dew Point Humidity Wind Precip. Elev Updated Type
                   

Watches & Warnings

There are currently no watches in effect.